Tracking 31027 objects as of 19-Jul-2025
HD Live streaming from Space Station
objects crossing your sky now

ASIASAT 2 PKM

Track ASIASAT 2 PKM now!
10-day predictions


NORAD ID: 23725
Int'l Code: 1995-064C
Perigee: 281.5 km
Apogee: 16,724.2 km
Inclination: 25.8 °
Period: 300.9 minutes
Semi major axis: 14873 km
RCS: 4.944 m2 (large)
Launch date: November 28, 1995
Source: People's Republic of China (PRC)
Launch site: Xichang Space Center, China (XSC)

Note: This is a ROCKET BODY
Your satellite tracking list
STARLINK-32625
Track 1 satellite(s)




NASA's NSSDC Master Catalog

Two Line Element Set (TLE):
1 23725U 95064C   25199.46036285  .00005378  00000-0  70647-3 0  9993
2 23725  25.7503 218.8538 5527408 223.8100  75.9518  4.78595115431575
Source of the keplerian elements: AFSPC